Flag for Cote d'Ivoire (Ivory Coast) Weather past 2 weeks in Abidjan, Cote d'Ivoire (Ivory Coast)

Now
84 °F

Passing clouds.


Feels Like: 92 °F
Forecast: N/A
Wind: 7 mph from Southwest

Location: Abidjan Airport

Current Time: Apr 26, 2015 at 10:40:32 PM

Latest Report: Apr 26, 2015 at 10:00 PM


Visibility: N/A

Pressure: 29.92 "Hg

Humidity: 74%

Dew point: 75 °F

Location of AbidjanLocation

Historic Weather in Abidjan — Graph

°F

Abidjan temperature yesterday

Maximum temperature yesterday: 88 °F (at 11:00 AM)
Minimum temperature yesterday: 81 °F (at 2:00 AM)
Average temperature yesterday: 84 °F

Past Weeks' High & Low Weather Summary

 TemperatureHumidityPressure
High90 °F (Apr 13, 12:00 PM)100% (Apr 12, 12:00 AM)29.98 "Hg (Apr 12, 12:00 AM)
Low73 °F (Apr 12, 12:30 PM)62% (Apr 24, 2:00 PM)29.77 "Hg (Apr 15, 4:00 PM)
Average84 °F81%29.86 "Hg
* Reported Apr 11 9:00 PM — Apr 26 9:30 PM, Abidjan, Weather by CustomWeather, © 2015

Note: Actual official high and low records may vary slightly from our data, if they occured in-between our weather recording intervals... More about our weather records

Advertising

Abidjan weather history for previous 24 hours

 ConditionsComfort  
Time TempWeatherWind HumidityBarometerVisibility
9:30 PM
Sun, Apr 26
84 °FPassing clouds.12 mph74%29.89 "HgN/A
9:00 PM84 °FPassing clouds.8 mph74%29.92 "HgN/A
8:30 PM84 °FPassing clouds.9 mph74%29.92 "HgN/A
8:00 PM84 °FPassing clouds.10 mph79%29.89 "HgN/A
7:30 PM84 °FPassing clouds.10 mph79%29.89 "HgN/A
7:00 PM84 °FPassing clouds.9 mph79%29.86 "HgN/A
6:30 PM84 °FPassing clouds.10 mph79%29.83 "HgN/A
6:00 PM86 °FPassing clouds.12 mph75%29.83 "HgN/A
5:30 PM86 °FPassing clouds.13 mph75%29.80 "HgN/A
5:00 PM88 °FPassing clouds.12 mph70%29.80 "HgN/A
4:30 PM88 °FPassing clouds.12 mph70%29.83 "HgN/A
4:00 PM88 °FPassing clouds.12 mph70%29.83 "HgN/A
3:30 PM90 °FPassing clouds.13 mph67%29.83 "HgN/A
3:00 PM90 °FPassing clouds.13 mph67%29.83 "HgN/A
2:30 PM90 °FScattered clouds.12 mph71%29.86 "HgN/A
2:00 PM88 °FScattered clouds.10 mph70%29.86 "HgN/A
1:30 PM90 °FScattered clouds.9 mph67%29.89 "HgN/A
1:00 PM90 °FScattered clouds.10 mph71%29.89 "HgN/A
12:30 PM90 °FScattered clouds.12 mph71%29.89 "HgN/A
12:00 PM88 °FScattered clouds.12 mph75%29.92 "HgN/A
11:30 AM88 °FScattered clouds.10 mph70%29.92 "HgN/A
11:00 AM88 °FScattered clouds.8 mph70%29.92 "HgN/A
10:30 AM88 °FScattered clouds.9 mph70%29.92 "HgN/A
10:00 AM88 °FScattered clouds.10 mph70%29.92 "HgN/A
9:30 AM86 °FScattered clouds.9 mph75%29.92 "HgN/A
9:00 AM86 °FScattered clouds.8 mph75%29.92 "HgN/A
8:30 AM86 °FScattered clouds.9 mph75%29.89 "HgN/A
8:00 AM86 °FPassing clouds.8 mph75%29.89 "Hg5 mi
7:30 AM84 °FPassing clouds.5 mph79%29.89 "Hg5 mi
7:00 AM81 °FPassing clouds.2 mph89%29.89 "Hg5 mi
6:30 AM81 °FPassing clouds.2 mph89%29.89 "HgN/A
6:00 AM82 °FPassing clouds.5 mph79%29.86 "HgN/A
5:30 AM81 °FPassing clouds.5 mph89%29.86 "HgN/A
5:00 AM81 °FPassing clouds.3 mph89%29.86 "HgN/A
4:30 AM81 °FPassing clouds.3 mph89%29.86 "HgN/A
4:00 AM82 °FPassing clouds.5 mph79%29.86 "HgN/A
3:30 AM82 °FPassing clouds.5 mph79%29.86 "HgN/A
3:00 AM82 °FPassing clouds.7 mph84%29.86 "HgN/A
2:30 AM82 °FPassing clouds.6 mph84%29.86 "HgN/A
2:00 AM82 °FPassing clouds.7 mph84%29.89 "HgN/A
1:30 AM81 °FPassing clouds.6 mph89%29.89 "HgN/A
1:00 AM81 °FPassing clouds.6 mph89%29.89 "HgN/A
12:30 AM82 °FPassing clouds.2 mph84%29.92 "HgN/A
12:00 AM82 °FPassing clouds.5 mph84%29.92 "HgN/A
11:30 PM
Sat, Apr 25
82 °FPassing clouds.6 mph84%29.92 "HgN/A
11:00 PM81 °FPassing clouds.6 mph89%29.92 "HgN/A
10:30 PM82 °FPassing clouds.6 mph84%29.92 "HgN/A
10:00 PM81 °FPassing clouds.6 mph84%29.92 "HgN/A
Weather by CustomWeather, © 2015

See weather overviewHow to use our weather pages